www.pogodaiklimat.ru

Погода и климат >> Архив погоды >> Аргентина >> Рио-Куарто


ПОГОДА в Рио-Куарто

  • Прогноз погоды в Рио-Куарто
  • Монитор погоды в Рио-Куарто

АРХИВ ПОГОДЫ в Рио-Куарто

Время (UTC), дата Ветер
(напр.,м/с)
 
Видим.   Явления Облачность Т
(С)
Тd
(С)
f
(%)
Тe
(С)
Тes
(С)
Комфортность P
(гПа)
Po
(гПа)
Тmin
(С)
Tmax
(С)
R
(мм)
R24
(мм)
S
(см)
12 11.06 штиль 0 400 м туман 10/10 150 м
[St]
+10.2 +9.8 97 +9 +9 1015.6 965.7 +9.4 +11.4
15 11.06 СВ 5 3000 м дымка {туман} 10/10 450 м
[St]
+14.3 +12.3 88 +13 +13 1014.0 964.5
18 11.06 В 5 800 м слаб. морось {туман} туман 10/10 150 м
[St]
+13.6 +13.4 99 +12 +12 1011.1 961.6
21 11.06 СВ 4 500 м туман 10/10 150 м
[St]
+13.3 +13.1 99 +11 +11 1009.2 959.8
00 12.06 СВ 6 1500 м дымка {туман} 10/10 150 м
[St]
+13.6 +13.6 100 +11 +11 1009.8 960.4 +10.2 +14.6 0.0
03 12.06 С 5 3000 м в посл. час морось 10/10 240 м
[St]
+14.0 +13.5 97 +12 +12 1008.7 959.7
06 12.06 В 1 600 м туман 10/10 150 м
[St]
+13.4 +13.4 100 +14 +14 1008.1 959.1 0.0
09 12.06 З 3 300 м туман 8/8 240 м
[St]
+11.6 +11.4 99 +10 +10 1008.3 959.1
12 12.06 Ю 3 12 км в посл. час туман туман ясно +11.0 +10.8 99 +9 +9 1010.6 961.2 +11.0 +14.0 0.0
15 12.06 Ю 4 400 м слаб. морось {туман} туман 10/10 240 м
[St]
+12.0 +11.8 99 +10 +10 1012.3 963.0
18 12.06 Ю 5 3000 м в посл. час морось {туман} туман 10/10 300 м
[St]
+13.4 +12.5 94 +11 +11 1010.8 961.6 0.0
21 12.06 Ю 4 2000 м дымка 10/10 300 м
[St]
+12.4 +11.5 94 +10 +10 1011.3 961.8
00 13.06 Ю 3 2000 м дымка 10/10 150 м
[St]
+11.3 +11.1 99 +9 +9 1012.5 962.9 +9.6 +14.3
03 13.06 В 2 900 м туман 10/10 90 м
[St]
+11.0 +11.0 100 +9 +9 1014.5 964.8
06 13.06 В 3 900 м туман 10/10 150 м
[St]
+10.8 +10.8 100 +9 +9 1012.5 963.0
09 13.06 штиль 0 200 м туман ?/? +10.6 +10.6 100 +10 +10 1010.4 960.9
12 13.06 ЮВ 2 700 м туман 10/10 150 м
[St]
+11.4 +11.2 99 +10 +10 1011.0 961.4 +10.2 +11.5 0.0
15 13.06 Ю 2 2000 м слаб. морось {туман} туман 10/10 210 м
[St]
+12.8 +12.6 99 +12 +12 1012.0 962.5
18 13.06 ЮЗ 3 2500 м слаб. морось {туман} туман 10/10 210 м
[St]
+11.8 +11.6 99 +10 +10 1010.7 961.2 0.0
21 13.06 ЮЗ 7 4000 м слаб. морось 10/10 210 м
[St]
+11.0 +10.8 99 +7 +7 1012.3 962.6
00 14.06 ЮЗ 5 5000 м в посл. час морось 10/10 180 м
[St]
+11.0 +10.8 99 +8 +8 1015.4 965.6 +11.0 +13.4 0.0
03 14.06 ЮЗ 6 2000 м слаб. морось туман 10/10 180 м
[St]
+10.1 +9.9 99 +7 +7 1017.1 967.3
06 14.06 ЮЗ 5 3000 м дымка 10/10 240 м
[St]
+9.0 +8.6 97 +5 +5 1017.7 967.7 0.0
09 14.06 ЮЗ 5 2000 м слаб. морось туман 10/10 240 м
[St]
+8.6 +8.0 96 +5 +5 1018.2 968.2
12 14.06 ЮЗ 3 15 км {морось} 10/10 300 м
[St]
+7.6 +6.5 93 +5 +5 1020.0 969.7 +7.6 +11.3 0.0
15 14.06 Ю 4 15 км 5/3 600 м
[Sc Ac As]
+9.6 +6.0 78 +7 +9 1019.7 969.4
18 14.06 штиль 0 50 км ?/? +11.4 +5.3 66 +11 +11 1017.9 967.8
21 14.06 Ю 4 15 км 10/0
[Ac As]
+10.1 +6.4 78 +7 +7 1016.9 966.6
00 15.06 Ю 3 15 км 10/5 750 м
[Sc Ac As]
+9.6 +6.9 83 +8 +8 1019.6 969.2 +7.6 +12.0
03 15.06 штиль 0 15 км 10/6 750 м
[Sc Ac As]
+8.7 +7.1 90 +8 +8 1020.4 970.0
06 15.06 ЮЗ 2 15 км 10/10 750 м
[Sc]
+8.0 +7.0 93 +6 +6 1019.6 969.4
09 15.06 ЮЗ 4 5000 м слаб. морось 10/10 300 м
[St]
+7.7 +7.1 96 +4 +4 1019.7 969.3
12 15.06 Ю 5 1500 м морось туман 10/10 120 м
[St]
+6.1 +5.9 99 +1 +1 1021.9 971.2 +5.7 +9.6 0.0
15 15.06 ЮЗ 4 200 м слаб. морось {туман} туман 10/10 60 м
[St]
+6.4 +6.4 100 +2 +2 1023.4 972.6
18 15.06 ЮЗ 5 2000 м слаб. морось туман 10/10 90 м
[St]
+6.6 +6.4 99 +2 +2 1022.8 972.0 0.2
21 15.06 ЮЗ 5 1200 м морось туман 10/10 90 м
[St]
+5.9 +5.9 100 +1 +1 1022.3 972.4
00 16.06 ЮЗ 5 4000 м слаб. дождь {морось} туман 10/6 150 м
[St As op]
+5.6 +5.2 97 +1 +1 1025.1 973.8 2
03 16.06 ЮЗ 9 5000 м слаб. дождь туман 10/6 150 м
[St As op]
+5.6 +5.4 99 -1 -1 1026.2 975.0
06 16.06 ЮЗ 7
{14}
7000 м слаб. морось {дождь} 10/10 240 м
[St]
+5.0 +4.8 99 -1 -1 1025.6 974.4 5
09 16.06 ЮЗ 7 9000 м слаб. морось 10/10 300 м
[St]
+4.9 +4.7 99 -1 -1 1024.2 973.0
12 16.06 ЮЗ 6 1500 м слаб. морось 10/10 240 м
[St]
+5.8 +5.6 99 +1 +1 1025.6 974.4 +4.6 +5.8 0.2
15 16.06 ЮЗ 6 5000 м слаб. морось 10/10 240 м
[St]
+6.5 +6.1 97 +2 +2 1025.9 974.7
18 16.06 штиль 0 50 км {морось} ?/? +8.1 +5.1 81 +7 +7 1023.3 972.3 0.1
21 16.06 З 7 10 км осадки на расстоянии 10/10 240 м
[St]
+7.4 +5.7 89 +3 +3 1022.6 971.6
00 17.06 ЮЗ 5 15 км в посл. час морось 9/4 360 м
[Sc Ac As]
+6.7 +5.6 93 +2 +2 1023.1 972.1 +5.8 +8.5 0.0
03 17.06 З 7 15 км 8/0
[Ac As Cs]
+7.4 +4.5 82 +3 +3 1023.5 972.6
06 17.06 З 5 15 км 6/0
[Cs]
+7.0 +4.1 82 +3 +3 1021.5 970.8
09 17.06 ЮЗ 2 15 км 10/10 600 м
[Sc]
+6.9 +3.0 76 +5 +5 1020.2 969.4
12 17.06 штиль 0 15 км 9/3 900 м
[Sc Ac As]
+6.8 +5.3 90 +6 +6 1020.6 969.8 +6.4 +7.6 0.1
15 17.06 С 6 15 км 9/6 1050 м
[Sc Ac As]
+10.6 +5.6 71 +7 +8 1019.5 969.0
18 17.06 С 3 15 км 10/6 900 м
[Sc Ac As]
+10.3 +5.2 71 +9 +9 1016.6 966.2
21 17.06 штиль 0 15 км 10/10 1050 м
[Sc]
+9.8 +7.1 83 +9 +9 1015.8 965.4
00 18.06 ЮЗ 4 15 км 10/10 600 м
[Sc]
+9.0 +5.8 80 +6 +6 1016.5 966.1 +6.8 +11.0
03 18.06 СЗ 2 15 км 9/9 750 м
[Sc]
+8.4 +4.0 74 +7 +7 1016.4 966.3
06 18.06 З 5 15 км 9/4 900 м
[Sc Ac As]
+8.2 +4.2 76 +5 +5 1016.1 966.0
09 18.06 З 4 15 км {дождь} 9/5 900 м
[Sc Ac As]
+8.3 +3.3 71 +5 +5 1014.9 964.8

 

Местоположение метеостанции Рио-Куарто (Аргентина): широта -33.09 долгота -64.27 высота над уровнем моря 421 м.

В архиве по умолчанию представлена погода в Рио-Куарто за последнюю неделю. Архивные данные за месяц целиком и за предыдущие месяцы, начиная с января 2011 года, Вы можете получить, выбрав интересующий диапазон дат из раскрывающегося списка и нажав кнопку "Ввод!".


*Определитесь, кто Вы:
робот инопланетянин человек

Внимание! Время в таблицах - всемирное. Для получения местного времени необходимо прибавить поправку, которая равна -3 ч.

Смотрите также архив погоды в соседних городах и на ближайших метеорологических станциях:

Погода в Вилья Рейнольдс (Аргентина) (125 км)
Погода в Лабоулайе (Аргентина) (143 км)
Погода в Вилла Долорес (Аргентина) (150 км)
Погода в Пиларе (Аргентина) (163 км)
Погода в Сан-Луисе (Аргентина) (195 км)
Погода в Кордове (Аргентина) (198 км)
Погода в Маркос Хуарес (Аргентина) (203 км)
Погода в Хенераль Пико (Аргентина) (294 км)
Погода в Росарио (Аргентина) (326 км)
Погода в Хунине (Аргентина) (350 км)

Пояснения к столбцам:

Ветер - указаны скорость ветра в м/с - средняя за 10 мин, порывы в срок и между сроками (в фигурных скобках) и направление, откуда дует ветер: С - северный, СВ - северо-восточный, В - восточный, ЮВ - юго-восточный, Ю - южный, ЮЗ - юго-западный, З - западный, СЗ - северо-западный.
Видимость - горизонтальная дальность видимости в метрах или километрах. При видимости от 1 до 10 км при отсутствии осадков обычно наблюдается дымка, при ухудшении видимости до 1 км и менее - туман. В сухую погоду видимость может ухудшаться дымом, пылью или мглою.
Явления - указаны атмосферные явления, наблюдавшиеся в срок или в последний час перед сроком; фигурными скобками обозначены явления, наблюдавшиеся между сроками (за 1-3 часа до срока); квадратными скобками обозначены град или гололедные отложения с указанием их диаметра в мм.
Облачность - указаны через наклонную черту общая и нижняя облачность в баллах и высота нижней границы облаков в метрах; квадратными скобками обозначены формы облаков: Ci - перистые, Cs - перисто-слоистые, Cc - перисто-кучевые, Ac - высококучевые, As - высокослоистые, Sc - слоисто-кучевые, Ns - слоисто-дождевые, Cu - кучевые, Cb - кучево-дождевые. Подробнее классификацию облаков см. в Атласе облаков (PDF).
T - Температура воздуха - температура, измеренная на высоте 2 м над землей.
Td - Температура точки росы - температура, при понижении до которой содержащийся в воздухе водяной пар достигнет насыщения.
f - Относительная влажность воздуха - влажноcть воздуха, измеренная на высоте 2 м над землей.
Te - Эффективная температура - температура, которую ощущает одетый по сезону человек в тени. Характеристика душности погоды. При расчете учитывается влияние влажности воздуха и скорости ветра на теплоощущения человека.
Tes - Эффективная температура на солнце - температура, которую ощущает человек, с поправкой на солнечный нагрев. Характеристика знойности погоды. Зависит от высоты солнца над горизонтом, облачности и скорости ветра. Ночью, в пасмурную погоду, а также при ветре 12 м/с и более поправка равна нулю.
P - Атмосферное давление - приведенное к уровню моря атмосферное давление.
Po - Атмосферное давление - измеренное на уровне метеостанции атмосферное давление.
Tmin - Минимальная температура - минимум температуры воздуха на высоте 2 м над землей.
Tmax - Максимальная температура - максимум температуры воздуха на высоте 2 м над землей.
R - Количество осадков - Количество выпавших осадков за период времени, мм. При наведении курсора мыши на число - период времени, за который выпало указанное количество осадков.
R24 - Количество осадков - Количество выпавших осадков за 24 часа, мм.
S - Снежный покров - Высота снежного покрова, см. При наведении курсора мыши на число - состояние снежного покрова и степень покрытия местности в баллах.